Regional Weather Roundup
Issued by NWS

Home | Current Version | Previous Version | Graphics & Text | Print | Product List | Glossary On
Versions: 1 2 3 4 5 6 7 8 9 10 11 12 13 14 15 16 17 18 19 20 21 22 23 24 25 26 27 28 29 30 31 32 33 34 35 36 37 38 39 40 41 42 43 44 45 46 47 48 49 50
000
ASUS43 KIND 270309
RWRIN

WEATHER ROUNDUP FOR INDIANA
NATIONAL WEATHER SERVICE INDIANAPOLIS IN
1100 PM EDT SUN APR 26 2015

NOTE: "FAIR" INDICATES FEW OR NO CLOUDS BELOW 12,000 FEET WITH NO
SIGNIFICANT WEATHER AND/OR OBSTRUCTIONS TO VISIBILITY.

* - STATION DOES NOT REPORT WEATHER SUCH AS PRECIPITATION OR FOG.

+ - STATION NOT QUALITY CONTROLLED BY THE NATIONAL WEATHER SERVICE.
    USE DATA WITH CAUTION...ESPECIALLY DEWPOINT AND RELATIVE
    HUMIDITY OBSERVATIONS.

INZ001>003-010>013-019-020-270400-
NORTHWEST INDIANA

CITY           SKY/WX    TMP DP  RH WIND       PRES   REMARKS
GARY /AIRPORT/ PTCLDY    45  27  49 N13       30.03R
KNOX *+        CLEAR     36  18  48 NW7       29.98S
LA PORTE +     CLEAR     44  30  59 N12G18    29.99S
MICHIGAN CITY+ CLEAR     41  28  60 N6        30.01R
MONTICELLO +   CLEAR     38  31  74 NW8       29.98S
VALPARAISO     CLEAR     42  27  55 N9        30.00R

$$

LMZ046-743>745-270400-
SOUTHERN LAKE MICHIGAN

STATION/POSITION TIME  TEMP    WIND        PRES    WAVE
                       AIR SEA DIR/SP/G            HT
                 (UTC) (F)     (DEG/KT/KT) (MB)    (FT)
BURNS HARBOR     0300   42     340/ 10/ 12 1016.6S
MICHIGAN CITY    0300   41     320/ 11/ 13   N/A
5NW MICH CITY    0300   41 45  340/  8/ 10   N/A     3

$$

INZ004-005-014>016-021>024-270400-
NORTH CENTRAL INDIANA

CITY           SKY/WX    TMP DP  RH WIND       PRES   REMARKS
GOSHEN         MOCLDY    44  28  53 NW6       29.95R
LOGANSPORT +   CLEAR     43  27  52 NW6       29.98R
PERU/GRISSOM   CLEAR     44  29  56 NW8       29.95S
ROCHESTER +    PTCLDY    43  30  61 NW6       29.97R
SOUTH BEND     CLEAR     43  26  51 NW10      29.98R
WARSAW +       CLOUDY    45  28  53 NW6       29.95S

$$

INZ006>009-017-018-025>027-270400-
NORTHEAST INDIANA

CITY           SKY/WX    TMP DP  RH WIND       PRES   REMARKS
ANGOLA *+      CLOUDY    48  37  66 NW6       29.92S
AUBURN +       CLOUDY    50  32  50 NW6       29.93S
FORT WAYNE     CLOUDY    49  32  52 NW12      29.94R
HUNTINGTON +   CLOUDY    47  31  53 NW7       29.94S

$$

INZ028-029-035-036-043>045-051>053-270400-
WEST CENTRAL INDIANA

CITY           SKY/WX    TMP DP  RH WIND       PRES   REMARKS
CRAWFORDSVL +  CLEAR     42  26  53 NW7       29.99R
GREENCASTLE +  CLEAR     45  30  57 N9        29.98R
LAFAYETTE      CLEAR     42  29  59 N7        29.99R
TERRE HAUTE    CLEAR     48  33  56 N9        29.99R

$$

INZ030>032-037>040-046>048-054>057-064-065-270400-
CENTRAL INDIANA

CITY           SKY/WX    TMP DP  RH WIND       PRES   REMARKS
CP ATTERBURY + CLOUDY    45  39  81 CALM      29.94R
FISHERS *+     CLEAR     46  36  66 NW7       29.96R
FRANKFORT +    CLEAR     44  32  64 NW10      29.99R
GREENWOOD *+   CLEAR     48  32  53 N10       29.95R
INDIANAPOLIS   PTCLDY    48  33  56 N14       29.95R
-EAGLE CREEK   CLEAR     48  34  58 N13       29.96R
KOKOMO *+      CLEAR     45  30  57 NW7       29.96R
MARION +       CLOUDY    47  32  56 N7        29.96R
MT COMFORT *+  PTCLDY    48  28  46 NW12      29.95R
SHELBYVILLE    CLOUDY    50  39  66 NW7       29.93R
ZIONSVILLE +   CLEAR     46  33  62 NW9       29.97R

$$

INZ033-034-041-042-049-050-058-059-270400-
EAST CENTRAL INDIANA

CITY           SKY/WX    TMP DP  RH WIND       PRES   REMARKS
MUNCIE         CLOUDY    50  36  58 N15       29.93R

$$

INZ060-061-067>069-081>083-085>088-270400-
SOUTHWEST INDIANA

CITY           SKY/WX    TMP DP  RH WIND       PRES   REMARKS
EVANSVILLE     CLEAR     53  38  56 N9        29.95R
HUNTINGBURG *+ CLEAR     50  36  57 N5        29.95R
WASHINGTON +   CLEAR     46  37  68 N5        29.95S

$$

INZ062-063-066-070>080-084-089>092-270400-
SOUTH CENTRAL AND SOUTHEAST INDIANA

CITY           SKY/WX    TMP DP  RH WIND       PRES   REMARKS
BEDFORD +      PTCLDY    48  34  57 CALM      29.95R
BLOOMINGTON    FAIR      45  37  73 N9        29.96R
MADISON *+     CLEAR     45  36  70 CALM      29.94R
NORTH VERNON + MOCLDY    46  37  71 CALM      29.93R
SEYMOUR +      CLEAR     48  37  66 NW3       29.94R

$$



USA.gov is the U.S. government's official web portal to all federal, state and local government web resources and services.